Elmira, NY

4:26 PM EST on November 16, 2019 (GMT -0500)
Elmira-Corning Regional

Weather History for KELM - May, 2019

Change the Weather History Date:

Saturday, May 25, 2019

  Actual Average Record
Temperature  
Mean Temperature 62 °F -  
Max Temperature 81 °F 71 °F 89 °F (1955)
Min Temperature 44 °F 46 °F 27 °F (1956)
Degree Days  
Heating Degree Days 3    
Growing Degree Days 12 (Base 50)    
Moisture  
Dew Point 54 °F    
Average Humidity 79    
Maximum Humidity 94    
Minimum Humidity 52    
Precipitation  
Precipitation 0.40 in - - ()
Sea Level Pressure  
Sea Level Pressure 30.05 in    
Wind  
Wind Speed 5 mph (SSW)    
Max Wind Speed 16 mph    
Max Gust Speed 29 mph    
Visibility 8 miles    
Events Rain , Thunderstorm    
Averages and records for this station are not official NWS values.
T = Trace of Precipitation, MM = Missing Value Source: NWS Daily Summary

Daily Weather History Graph

Daily Weather History Graph

Search for Another Location

Airport or City:

Astronomy

May. 25, 2019 Rise Set
Actual Time 5:38 AM EDT 8:31 PM EDT
Civil Twilight 5:05 AM EDT 9:04 PM EDT
Nautical Twilight 4:23 AM EDT 9:46 PM EDT
Astronomical Twilight 3:34 AM EDT 10:35 PM EDT
Moon 1:29 AM EDT (5/25) 11:36 AM EDT (5/25)
Length of Visible Light 15h 59m
Length of Day
14h 52m
Waning Gibbous, 60% of the Moon is Illuminated
May 25
Waning Gibbous
May 26
Last Quarter
Jun 3
New
Jun 10
First Quarter
Jun 17
Full

Hourly Weather History & Observations

Time (EDT) Temp. Heat Index Dew Point Humidity Pressure Visibility Wind Dir Wind Speed Gust Speed Precip Events Conditions
12:53 AM 50.0 °F - 46.9 °F 89% 30.18 in 10.0 mi SSE 4.6 mph - N/A   Clear
1:53 AM 51.1 °F - 46.9 °F 86% 30.16 in 10.0 mi ENE 4.6 mph - N/A   Clear
2:53 AM 48.9 °F - 46.0 °F 90% 30.16 in 10.0 mi Calm Calm - N/A   Clear
3:53 AM 46.9 °F - 44.1 °F 90% 30.16 in 10.0 mi Calm Calm - N/A   Clear
4:46 AM 44.1 °F - 41.0 °F 89% 30.16 in 1.8 mi Calm Calm - N/A   Clear
4:53 AM 45.0 °F - 43.0 °F 93% 30.16 in 1.5 mi Calm Calm - N/A   Clear
5:02 AM 46.0 °F - 44.1 °F 93% 30.16 in 3.0 mi Calm Calm - N/A   Clear
5:53 AM 45.0 °F - 43.0 °F 93% 30.17 in 3.0 mi Calm Calm - N/A   Partly Cloudy
6:05 AM 45.0 °F - 43.0 °F 93% 30.16 in 10.0 mi Calm Calm - N/A   Mostly Cloudy
6:15 AM 46.0 °F - 44.1 °F 93% 30.16 in 2.5 mi Calm Calm - N/A   Mostly Cloudy
6:22 AM 46.9 °F - 45.0 °F 93% 30.16 in 10.0 mi ENE 3.5 mph - N/A   Scattered Clouds
6:53 AM 50.0 °F - 46.9 °F 89% 30.16 in 10.0 mi Calm Calm - N/A   Scattered Clouds
7:13 AM 51.1 °F - 48.0 °F 89% 30.15 in 10.0 mi Calm Calm - N/A   Mostly Cloudy
7:31 AM 51.1 °F - 48.0 °F 89% 30.15 in 10.0 mi Calm Calm - N/A   Scattered Clouds
7:53 AM 52.0 °F - 48.0 °F 86% 30.15 in 10.0 mi Calm Calm - N/A   Clear
8:53 AM 57.0 °F - 48.9 °F 74% 30.14 in 10.0 mi NE 3.5 mph - N/A   Clear
9:53 AM 64.9 °F - 52.0 °F 63% 30.11 in 10.0 mi ENE 3.5 mph - N/A   Partly Cloudy
10:53 AM 68.0 °F - 54.0 °F 61% 30.11 in 10.0 mi SSW 12.7 mph 18.4 mph N/A   Overcast
11:53 AM 68.0 °F - 54.0 °F 61% 30.10 in 10.0 mi SSW 11.5 mph - N/A   Mostly Cloudy
12:53 PM 73.0 °F - 55.9 °F 55% 30.05 in 10.0 mi SSW 11.5 mph - N/A   Clear
1:53 PM 77.0 °F - 59.0 °F 54% 30.01 in 10.0 mi South 10.4 mph - N/A   Clear
2:53 PM 79.0 °F - 61.0 °F 54% 29.96 in 10.0 mi SW 16.1 mph 21.9 mph N/A   Clear
3:53 PM 80.1 °F 81.1 °F 61.0 °F 52% 29.93 in 10.0 mi SSW 12.7 mph - N/A   Clear
4:53 PM 79.0 °F - 60.1 °F 52% 29.93 in 10.0 mi South 11.5 mph - N/A   Clear
5:53 PM 77.0 °F - 60.1 °F 56% 29.92 in 10.0 mi SSW 16.1 mph 28.8 mph N/A   Scattered Clouds
6:53 PM 75.0 °F - 60.1 °F 60% 29.92 in 10.0 mi SSW 15.0 mph 24.2 mph N/A   Mostly Cloudy
7:53 PM 73.9 °F - 60.1 °F 62% 29.91 in 10.0 mi South 11.5 mph - N/A   Mostly Cloudy
8:28 PM 72.0 °F - 60.1 °F 66% 29.92 in 10.0 mi ESE 6.9 mph - N/A Thunderstorm Overcast
8:43 PM 73.0 °F - 60.1 °F 64% 29.93 in 10.0 mi ESE 4.6 mph - N/A   Overcast
8:53 PM 72.0 °F - 61.0 °F 68% 29.92 in 10.0 mi SSE 3.5 mph - 0.00 in Rain , Thunderstorm Light Thunderstorms and Rain
9:07 PM 68.0 °F - 63.0 °F 84% 29.96 in 3.0 mi WSW 9.2 mph - 0.07 in Rain , Thunderstorm Heavy Rain
9:14 PM 68.0 °F - 64.0 °F 87% 29.95 in 2.0 mi SSW 10.4 mph - 0.13 in Rain , Thunderstorm Heavy Rain
9:32 PM 68.0 °F - 64.0 °F 87% 29.97 in 2.5 mi WSW 9.2 mph - 0.24 in Rain Heavy Rain
9:41 PM 66.9 °F - 64.0 °F 90% 29.97 in 3.0 mi SW 12.7 mph - 0.29 in Rain , Thunderstorm Heavy Rain
9:48 PM 66.2 °F - 64.4 °F 94% 29.97 in 3.0 mi WSW 10.4 mph - 0.32 in Rain , Thunderstorm Heavy Thunderstorms and Rain
9:53 PM 66.9 °F - 64.0 °F 90% 29.96 in 4.0 mi SW 8.1 mph - 0.35 in Rain , Thunderstorm Heavy Thunderstorms and Rain
10:03 PM 66.0 °F - 64.0 °F 93% 29.97 in 5.0 mi SW 6.9 mph - 0.02 in Rain Rain
10:53 PM 66.0 °F - 64.0 °F 93% 29.95 in 10.0 mi West 6.9 mph - 0.05 in   Overcast
11:53 PM 66.0 °F - 64.0 °F 93% 29.94 in 10.0 mi Calm Calm - N/A   Overcast